Tiempo cada hora Alihanmahi

Hoy, 2 Agosto, Lunes

Tiempo Temperatura Precipitaciones Viento Presión Humedad
00:00 +15°C° 0 mm 2 mps 631 mmHg 78%
01:00 +15°C° 0 mm 2 mps 631 mmHg 77%
02:00 +15°C° 0 mm 2 mps 631 mmHg 75%
03:00 +15°C° 0 mm 2 mps 630 mmHg 74%
04:00 +15°C° 0 mm 2 mps 631 mmHg 73%
05:00 +16°C° 0 mm 2 mps 631 mmHg 72%
06:00 +16°C° 0 mm 2 mps 631 mmHg 70%
07:00 +18°C° 0 mm 2 mps 632 mmHg 62%
08:00 +20°C° 0 mm 2 mps 633 mmHg 54%
09:00 +23°C° 0 mm 2 mps 633 mmHg 46%
10:00 +24°C° 0.2 mm 3 mps 633 mmHg 43%
11:00 +25°C° 0.2 mm 4 mps 633 mmHg 40%
12:00 +26°C° 0.2 mm 4 mps 633 mmHg 37%
13:00 +25°C° 0.6 mm 4 mps 633 mmHg 42%
14:00 +22°C° 0.6 mm 4 mps 633 mmHg 46%
15:00 +21°C° 0.6 mm 5 mps 633 mmHg 50%
16:00 +21°C° 0.2 mm 3 mps 633 mmHg 54%
17:00 +20°C° 0.2 mm 2 mps 632 mmHg 58%
18:00 +20°C° 0.2 mm 1 mps 632 mmHg 62%
19:00 +19°C° 0 mm 1 mps 632 mmHg 63%
20:00 +17°C° 0 mm 2 mps 632 mmHg 64%
21:00 +16°C° 0 mm 2 mps 632 mmHg 65%
22:00 +15°C° 0 mm 2 mps 632 mmHg 64%
23:00 +15°C° 0 mm 2 mps 631 mmHg 63%

Mañana, 3 Agosto, Martes

Tiempo Temperatura Precipitaciones Viento Presión Humedad
00:00 +15°C° 0 mm 2 mps 631 mmHg 62%
01:00 +14°C° 0 mm 2 mps 631 mmHg 61%
02:00 +14°C° 0 mm 2 mps 631 mmHg 61%
03:00 +14°C° 0 mm 2 mps 631 mmHg 61%
04:00 +14°C° 0 mm 2 mps 631 mmHg 61%
05:00 +15°C° 0 mm 2 mps 632 mmHg 61%
06:00 +16°C° 0 mm 2 mps 632 mmHg 61%
07:00 +18°C° 0 mm 2 mps 633 mmHg 53%
08:00 +21°C° 0 mm 1 mps 633 mmHg 45%
09:00 +24°C° 0 mm 1 mps 634 mmHg 37%
10:00 +25°C° 0 mm 1 mps 634 mmHg 35%
11:00 +25°C° 0 mm 2 mps 634 mmHg 33%
12:00 +26°C° 0 mm 2 mps 634 mmHg 31%
13:00 +26°C° 0.1 mm 2 mps 634 mmHg 31%
14:00 +26°C° 0.1 mm 2 mps 634 mmHg 32%
15:00 +26°C° 0.1 mm 2 mps 634 mmHg 33%
16:00 +25°C° 0 mm 2 mps 633 mmHg 38%
17:00 +24°C° 0 mm 1 mps 633 mmHg 43%
18:00 +22°C° 0 mm 1 mps 633 mmHg 49%
19:00 +21°C° 0 mm 1 mps 633 mmHg 52%
20:00 +18°C° 0 mm 2 mps 633 mmHg 55%
21:00 +17°C° 0 mm 2 mps 633 mmHg 59%
22:00 +17°C° 0 mm 2 mps 633 mmHg 60%
23:00 +16°C° 0 mm 2 mps 633 mmHg 62%

Pasado mañana, 4 Agosto, Miércoles

Tiempo Temperatura Precipitaciones Viento Presión Humedad
00:00 +16°C° 0 mm 2 mps 633 mmHg 63%
01:00 +16°C° 0 mm 2 mps 632 mmHg 63%
02:00 +16°C° 0 mm 2 mps 632 mmHg 63%
03:00 +16°C° 0 mm 2 mps 632 mmHg 62%
04:00 +16°C° 0 mm 2 mps 633 mmHg 62%
05:00 +17°C° 0 mm 2 mps 633 mmHg 62%
06:00 +17°C° 0 mm 2 mps 634 mmHg 62%
07:00 +19°C° 0 mm 2 mps 634 mmHg 55%
08:00 +23°C° 0 mm 1 mps 635 mmHg 48%
09:00 +23°C° 0 mm 0 mps 635 mmHg 41%
10:00 +26°C° 0 mm 1 mps 635 mmHg 39%
11:00 +27°C° 0 mm 1 mps 635 mmHg 37%
12:00 +28°C° 0 mm 2 mps 635 mmHg 35%
13:00 +27°C° 0 mm 2 mps 635 mmHg 38%
14:00 +27°C° 0 mm 2 mps 635 mmHg 40%
15:00 +26°C° 0 mm 2 mps 635 mmHg 42%
16:00 +26°C° 0 mm 2 mps 635 mmHg 45%
17:00 +25°C° 0 mm 2 mps 634 mmHg 47%
18:00 +24°C° 0 mm 1 mps 634 mmHg 50%
19:00 +23°C° 0 mm 1 mps 634 mmHg 50%
20:00 +21°C° 0 mm 2 mps 634 mmHg 51%
21:00 +20°C° 0 mm 2 mps 634 mmHg 51%
22:00 +20°C° 0 mm 2 mps 634 mmHg 53%
23:00 +19°C° 0 mm 2 mps 634 mmHg 55%

5 Agosto, Jueves

Tiempo Temperatura Precipitaciones Viento Presión Humedad
00:00 +19°C° 0 mm 2 mps 633 mmHg 57%
01:00 +18°C° 0 mm 2 mps 633 mmHg 58%
02:00 +18°C° 0 mm 2 mps 633 mmHg 59%
03:00 +18°C° 0 mm 2 mps 633 mmHg 60%
04:00 +18°C° 0 mm 2 mps 633 mmHg 60%
05:00 +18°C° 0 mm 2 mps 633 mmHg 60%
06:00 +18°C° 0 mm 2 mps 633 mmHg 61%
07:00 +20°C° 0 mm 2 mps 634 mmHg 54%
08:00 +24°C° 0 mm 1 mps 634 mmHg 47%
09:00 +26°C° 0 mm 1 mps 635 mmHg 40%
10:00 +27°C° 0 mm 1 mps 635 mmHg 38%
11:00 +28°C° 0 mm 2 mps 635 mmHg 36%
12:00 +29°C° 0 mm 2 mps 635 mmHg 34%
13:00 +28°C° 0.1 mm 2 mps 635 mmHg 36%
14:00 +28°C° 0.1 mm 3 mps 635 mmHg 38%
15:00 +28°C° 0.1 mm 3 mps 634 mmHg 41%
16:00 +26°C° 0.4 mm 2 mps 634 mmHg 49%
17:00 +24°C° 0.4 mm 2 mps 634 mmHg 57%
18:00 +22°C° 0.4 mm 1 mps 634 mmHg 66%
19:00 +21°C° 0.2 mm 1 mps 633 mmHg 68%
20:00 +20°C° 0.2 mm 1 mps 633 mmHg 70%
21:00 +18°C° 0.2 mm 2 mps 633 mmHg 72%
22:00 +18°C° 0 mm 2 mps 633 mmHg 72%
23:00 +17°C° 0 mm 2 mps 633 mmHg 72%

6 Agosto, Viernes

Tiempo Temperatura Precipitaciones Viento Presión Humedad
00:00 +17°C° 0 mm 2 mps 632 mmHg 71%
01:00 +17°C° 0 mm 2 mps 632 mmHg 70%
02:00 +16°C° 0 mm 2 mps 632 mmHg 69%
03:00 +16°C° 0 mm 2 mps 632 mmHg 68%
04:00 +16°C° 0 mm 2 mps 632 mmHg 67%
05:00 +17°C° 0 mm 2 mps 632 mmHg 66%
06:00 +17°C° 0 mm 2 mps 632 mmHg 65%
07:00 +19°C° 0 mm 2 mps 632 mmHg 57%
08:00 +23°C° 0 mm 2 mps 633 mmHg 49%
09:00 +25°C° 0 mm 1 mps 633 mmHg 42%
10:00 +26°C° 0 mm 2 mps 633 mmHg 39%
11:00 +27°C° 0 mm 2 mps 633 mmHg 37%
12:00 +29°C° 0 mm 2 mps 634 mmHg 34%
13:00 +29°C° 0 mm 2 mps 633 mmHg 35%
14:00 +29°C° 0 mm 3 mps 633 mmHg 35%
15:00 +29°C° 0 mm 3 mps 633 mmHg 36%
16:00 +27°C° 0.1 mm 2 mps 632 mmHg 43%
17:00 +26°C° 0.1 mm 2 mps 632 mmHg 50%
18:00 +24°C° 0.1 mm 2 mps 631 mmHg 57%
19:00 +23°C° 0.3 mm 2 mps 631 mmHg 60%
20:00 +20°C° 0.3 mm 2 mps 631 mmHg 62%
21:00 +18°C° 0.3 mm 2 mps 631 mmHg 65%
22:00 +18°C° 0 mm 2 mps 630 mmHg 62%
23:00 +18°C° 0 mm 2 mps 630 mmHg 59%

7 Agosto, Sábado

Tiempo Temperatura Precipitaciones Viento Presión Humedad
00:00 +18°C° 0 mm 2 mps 630 mmHg 56%
01:00 +17°C° 0 mm 3 mps 630 mmHg 54%
02:00 +17°C° 0 mm 3 mps 630 mmHg 53%
03:00 +17°C° 0 mm 3 mps 630 mmHg 51%
04:00 +17°C° 0 mm 3 mps 630 mmHg 52%
05:00 +17°C° 0 mm 3 mps 630 mmHg 52%
06:00 +18°C° 0 mm 3 mps 630 mmHg 53%
07:00 +21°C° 0 mm 2 mps 631 mmHg 46%
08:00 +24°C° 0 mm 1 mps 631 mmHg 40%
09:00 +25°C° 0 mm 0 mps 632 mmHg 33%
10:00 +28°C° 0 mm 1 mps 632 mmHg 32%
11:00 +29°C° 0 mm 2 mps 632 mmHg 31%
12:00 +30°C° 0 mm 3 mps 632 mmHg 30%
13:00 +30°C° 0 mm 3 mps 632 mmHg 32%
14:00 +30°C° 0 mm 3 mps 632 mmHg 34%
15:00 +29°C° 0 mm 3 mps 632 mmHg 37%
16:00 +28°C° 0 mm 2 mps 632 mmHg 41%
17:00 +27°C° 0 mm 2 mps 632 mmHg 46%
18:00 +26°C° 0 mm 1 mps 631 mmHg 51%
19:00 +24°C° 0.2 mm 1 mps 631 mmHg 56%
20:00 +21°C° 0.2 mm 2 mps 631 mmHg 60%
21:00 +19°C° 0.2 mm 2 mps 631 mmHg 64%
22:00 +19°C° 0.1 mm 2 mps 631 mmHg 64%
23:00 +18°C° 0.1 mm 2 mps 631 mmHg 64%
Mostrar más

Necesitamos Su Consentimiento

Meteoprog y nuestros Proveedores de Servicios pueden almacenar y acceder a sus datos personales como cookies, identificadores de dispositivo u otras tecnologías similares de su dispositivo y procesar dichos datos para personalizar contenido y anuncios, además de ofrecer funciones de redes sociales y analizar el tráfico.

  • Almacenar y/o acceder a información en su dispositivo

    Se puede almacenar o acceder a cookies, identificadores de dispositivo u otra información de su dispositivo para los fines anteriormente indicados.

  • Anuncios y contenido personalizados, medición de anuncios y contenido, percepciones del público, y desarrollo de productos

    Los anuncios y el contenido pueden personalizarse en base a su perfil. Se pueden añadir más datos para personalizar mejor los anuncios y contenidos. Se puede medir el rendimiento de los anuncios y contenidos. Se puede obtener la percepción sobre el público que ha visto los anuncios y contenidos. Dichos datos pueden usarse para desarrollar o mejorar la experiencia del usuario, sistemas y software.

Al hacer clic en ‘Estoy De Acuerdo’ usted permitirá el uso de las cookies, identificadores de dispositivo, balizas web u otras tecnologías similares indicadas. Su configuración puede cambiarse desde el navegador de su dispositivo.

Para ciertos fines, los intereses legítimos pueden ser considerados por encima del consentimiento. Puede leer más sobre ello en nuestra Política de Privacidad y Cookies.